Terug naar catalogus

NOAA 16 DEB

ActiefPO
NORAD 42416·DEBRIS·🇺🇸 United States

Gelanceerd Sep 21, 2000 vanaf Vandenberg Space Force Base

Loading…

Volgende Passages (komende 24 uur)

TLE

VersSource: Space-Track

Epoch: Sep 12, 2026, 21:19 UTC

1 42416U 00055TL  26255.88842598  .00011421  00000-0  20892-2 0  9991
2 42416  98.8552  52.2526 0007701 358.5749   1.5429 14.66028484542717

Volg NOAA 16 DEB in realtime met AllMySat

Download on the App Store